User: anonymous   Login
Location: Brunembert
(50.7122°N, 1.8935°E)
Time: 20:41:55
(UTC+00:00)
Language:

Cosmos 1980 - Orbit

View from above orbital plane
View from above orbital plane
View from above satellite
View from above satellite

Ground track
Ground track

The orbit data is extracted from the following two-line orbital elements,

1 19649U 88102A   21171.54996565  .00000140  00000-0  97632-4 0  9995
2 19649  71.0005 232.1797 0007513 254.9120 105.1172 14.14735346681677
Epoch (UTC): 20 June 2021 13:11:57
Eccentricity: 0.0007513
inclination: 71.0005°
perigee height: 838 km
apogee height: 848 km
right ascension of ascending node: 232.1797°
argument of perigee: 254.9120°
revolutions per day: 14.14735346
mean anomaly at epoch: 105.1172°
orbit number at epoch: 68167

The dashed part of the orbit path shows where the satellite is in the earth's shadow,  

DLR